Time,TemperatureF,DewpointF,PressureIn,WindDirection,WindDirectionDegrees,WindSpeedMPH,WindSpeedGustMPH,Humidity,HourlyPrecipIn,Conditions,Clouds,dailyrainin,SoftwareType,DateUTC
2013-09-08 00:03:00,75.9,56.5,29.96,South,170,0.0,0.0,51,0.00,CLR,,0.00,WeatherDisplay:10.37,2013-09-08 05:03:00,
2013-09-08 00:08:00,75.9,56.5,29.93,South,170,0.0,0.0,51,0.00,CLR,,0.00,WeatherDisplay:10.37,2013-09-08 05:08:00,
2013-09-08 00:13:00,75.7,56.3,29.93,South,170,0.0,0.0,51,0.00,CLR,,0.00,WeatherDisplay:10.37,2013-09-08 05:13:00,
2013-09-08 00:18:00,75.7,56.3,29.93,South,170,0.0,0.0,51,0.00,CLR,,0.00,WeatherDisplay:10.37,2013-09-08 05:18:00,
2013-09-08 00:23:00,75.6,56.2,29.93,South,170,0.0,0.0,51,0.00,CLR,,0.00,WeatherDisplay:10.37,2013-09-08 05:23:00,
2013-09-08 00:28:00,75.6,56.2,29.93,South,170,0.0,0.0,51,0.00,CLR,,0.00,WeatherDisplay:10.37,2013-09-08 05:28:00,
2013-09-08 00:33:00,75.4,56.0,29.93,South,170,0.0,0.0,51,0.00,CLR,,0.00,WeatherDisplay:10.37,2013-09-08 05:33:00,
2013-09-08 00:38:00,75.4,56.0,29.93,South,170,0.0,0.0,51,0.00,CLR,,0.00,WeatherDisplay:10.37,2013-09-08 05:38:00,
2013-09-08 00:43:00,75.4,56.0,29.93,South,170,0.0,0.0,51,0.00,CLR,,0.00,WeatherDisplay:10.37,2013-09-08 05:43:00,
2013-09-08 00:48:00,75.4,56.0,29.93,South,170,0.0,0.0,51,0.00,CLR,,0.00,WeatherDisplay:10.37,2013-09-08 05:48:00,
2013-09-08 00:53:00,75.4,55.4,29.93,South,170,0.0,0.0,50,0.00,CLR,,0.00,WeatherDisplay:10.37,2013-09-08 05:53:00,
2013-09-08 00:58:00,75.4,56.0,29.93,South,170,0.0,0.0,51,0.00,CLR,,0.00,WeatherDisplay:10.37,2013-09-08 05:58:00,
2013-09-08 01:03:00,75.6,55.6,29.93,South,170,0.0,0.0,50,0.00,CLR,,0.00,WeatherDisplay:10.37,2013-09-08 06:03:00,
2013-09-08 01:08:00,75.6,55.6,29.93,SSW,205,0.0,0.0,50,0.00,CLR,,0.00,WeatherDisplay:10.37,2013-09-08 06:08:00,
2013-09-08 01:13:00,75.4,55.4,29.93,SSW,205,0.0,0.0,50,0.00,CLR,,0.00,WeatherDisplay:10.37,2013-09-08 06:13:00,
2013-09-08 01:18:00,75.2,55.3,29.93,SSW,205,0.0,0.0,50,0.00,CLR,,0.00,WeatherDisplay:10.37,2013-09-08 06:18:00,
2013-09-08 01:23:00,75.2,55.3,29.93,SSW,205,0.0,0.0,50,0.00,CLR,,0.00,WeatherDisplay:10.37,2013-09-08 06:23:00,
2013-09-08 01:28:00,75.0,55.7,29.93,SSW,205,0.0,0.0,51,0.00,CLR,,0.00,WeatherDisplay:10.37,2013-09-08 06:28:00,
2013-09-08 01:33:00,74.8,55.5,29.93,SSW,205,0.0,0.0,51,0.00,CLR,,0.00,WeatherDisplay:10.37,2013-09-08 06:33:00,
2013-09-08 01:38:00,74.8,55.5,29.93,SSW,205,0.0,0.0,51,0.00,CLR,,0.00,WeatherDisplay:10.37,2013-09-08 06:38:00,
2013-09-08 01:43:00,74.7,55.3,29.93,SSW,205,0.0,0.0,51,0.00,CLR,,0.00,WeatherDisplay:10.37,2013-09-08 06:43:00,
2013-09-08 01:48:00,74.5,55.2,29.93,SSW,205,0.0,0.0,51,0.00,CLR,,0.00,WeatherDisplay:10.37,2013-09-08 06:48:00,
2013-09-08 01:53:00,74.5,55.2,29.93,SSW,205,0.0,0.0,51,0.00,CLR,,0.00,WeatherDisplay:10.37,2013-09-08 06:53:00,
2013-09-08 01:58:00,74.5,55.2,29.93,SSW,205,0.0,0.0,51,0.00,CLR,,0.00,WeatherDisplay:10.37,2013-09-08 06:58:00,
2013-09-08 02:03:00,74.1,54.8,29.93,SSW,205,0.0,0.0,51,0.00,CLR,,0.00,WeatherDisplay:10.37,2013-09-08 07:03:00,
2013-09-08 02:08:00,73.9,55.2,29.93,SSW,205,0.0,0.0,52,0.00,CLR,,0.00,WeatherDisplay:10.37,2013-09-08 07:08:00,
2013-09-08 02:13:00,73.8,55.6,29.93,SSW,205,0.0,0.0,53,0.00,CLR,,0.00,WeatherDisplay:10.37,2013-09-08 07:13:00,
2013-09-08 02:18:00,73.8,55.6,29.93,SSW,205,0.0,0.0,53,0.00,CLR,,0.00,WeatherDisplay:10.37,2013-09-08 07:18:00,
2013-09-08 02:23:00,73.6,55.4,29.93,SSW,205,0.0,0.0,53,0.00,CLR,,0.00,WeatherDisplay:10.37,2013-09-08 07:23:00,
2013-09-08 02:28:00,73.6,55.9,29.93,SSW,205,0.0,0.0,54,0.00,CLR,,0.00,WeatherDisplay:10.37,2013-09-08 07:28:00,
2013-09-08 02:33:00,73.6,55.9,29.93,SSW,205,0.0,0.0,54,0.00,CLR,,0.00,WeatherDisplay:10.37,2013-09-08 07:33:00,
2013-09-08 02:39:00,73.6,55.9,29.93,SSW,205,0.0,0.0,54,0.00,CLR,,0.00,WeatherDisplay:10.37,2013-09-08 07:39:00,
2013-09-08 02:44:00,73.6,56.4,29.93,SSW,205,0.0,0.0,55,0.00,CLR,,0.00,WeatherDisplay:10.37,2013-09-08 07:44:00,
2013-09-08 02:49:00,73.4,56.2,29.93,SSW,205,0.0,0.0,55,0.00,CLR,,0.00,WeatherDisplay:10.37,2013-09-08 07:49:00,
2013-09-08 02:54:00,73.4,56.2,29.93,SSW,205,0.0,0.0,55,0.00,CLR,,0.00,WeatherDisplay:10.37,2013-09-08 07:54:00,
2013-09-08 02:59:00,73.2,56.6,29.93,SSW,205,0.0,0.0,56,0.00,CLR,,0.00,WeatherDisplay:10.37,2013-09-08 07:59:00,
2013-09-08 03:04:00,73.2,56.6,29.93,SSW,205,0.0,0.0,56,0.00,CLR,,0.00,WeatherDisplay:10.37,2013-09-08 08:04:00,
2013-09-08 03:09:00,73.2,57.1,29.93,SSW,205,0.0,0.0,57,0.00,CLR,,0.00,WeatherDisplay:10.37,2013-09-08 08:09:00,
2013-09-08 03:14:00,73.2,57.1,29.93,SSW,205,0.0,0.0,57,0.00,CLR,,0.00,WeatherDisplay:10.37,2013-09-08 08:14:00,
2013-09-08 03:19:00,73.0,56.9,29.93,SSW,205,0.0,0.0,57,0.00,CLR,,0.00,WeatherDisplay:10.37,2013-09-08 08:19:00,
2013-09-08 03:24:00,73.0,56.9,29.93,SSW,205,0.0,0.0,57,0.00,CLR,,0.00,WeatherDisplay:10.37,2013-09-08 08:24:00,
2013-09-08 03:29:00,73.2,57.1,29.93,SSW,205,0.0,0.0,57,0.00,CLR,,0.00,WeatherDisplay:10.37,2013-09-08 08:29:00,
2013-09-08 03:34:00,73.4,57.2,29.93,SSW,205,0.0,0.0,57,0.00,CLR,,0.00,WeatherDisplay:10.37,2013-09-08 08:34:00,
2013-09-08 03:39:00,73.4,57.2,29.93,SSW,205,0.0,0.0,57,0.00,CLR,,0.00,WeatherDisplay:10.37,2013-09-08 08:39:00,
2013-09-08 03:44:00,73.4,57.2,29.93,SSW,205,0.0,0.0,57,0.00,CLR,,0.00,WeatherDisplay:10.37,2013-09-08 08:44:00,
2013-09-08 03:49:00,73.4,57.2,29.93,SSW,205,0.0,0.0,57,0.00,CLR,,0.00,WeatherDisplay:10.37,2013-09-08 08:49:00,
2013-09-08 03:54:00,73.4,57.2,29.93,SSW,205,0.0,0.0,57,0.00,CLR,,0.00,WeatherDisplay:10.37,2013-09-08 08:54:00,
2013-09-08 03:59:00,73.2,57.6,29.93,SSW,205,0.0,0.0,58,0.00,CLR,,0.00,WeatherDisplay:10.37,2013-09-08 08:59:00,
2013-09-08 04:04:00,73.0,57.4,29.90,SSW,205,0.0,0.0,58,0.00,CLR,,0.00,WeatherDisplay:10.37,2013-09-08 09:04:00,
2013-09-08 04:09:00,73.0,57.4,29.90,SSW,205,0.0,0.0,58,0.00,CLR,,0.00,WeatherDisplay:10.37,2013-09-08 09:09:00,
2013-09-08 04:14:00,73.0,57.4,29.90,SSW,205,0.0,0.0,58,0.00,CLR,,0.00,WeatherDisplay:10.37,2013-09-08 09:14:00,
2013-09-08 04:19:00,73.0,57.4,29.90,SSW,205,0.0,0.0,58,0.00,CLR,,0.00,WeatherDisplay:10.37,2013-09-08 09:19:00,
2013-09-08 04:24:00,73.0,57.4,29.93,SSW,205,0.0,0.0,58,0.00,CLR,,0.00,WeatherDisplay:10.37,2013-09-08 09:24:00,
2013-09-08 04:29:00,73.2,57.6,29.93,SSW,205,0.0,0.0,58,0.00,CLR,,0.00,WeatherDisplay:10.37,2013-09-08 09:29:00,
2013-09-08 04:34:00,73.2,57.6,29.93,SSW,205,0.0,0.0,58,0.00,CLR,,0.00,WeatherDisplay:10.37,2013-09-08 09:34:00,
2013-09-08 04:39:00,73.4,57.7,29.93,SSW,205,0.0,0.0,58,0.00,CLR,,0.00,WeatherDisplay:10.37,2013-09-08 09:39:00,
2013-09-08 04:44:00,73.6,57.9,29.93,SSW,205,0.0,0.0,58,0.00,CLR,,0.00,WeatherDisplay:10.37,2013-09-08 09:44:00,
2013-09-08 04:49:00,73.6,57.9,29.93,SSW,205,0.0,0.0,58,0.00,CLR,,0.00,WeatherDisplay:10.37,2013-09-08 09:49:00,
2013-09-08 04:54:00,73.8,58.1,29.93,SSW,205,0.0,0.0,58,0.00,CLR,,0.00,WeatherDisplay:10.37,2013-09-08 09:54:00,
2013-09-08 04:59:00,73.8,58.1,29.93,SSW,205,0.0,0.0,58,0.00,CLR,,0.00,WeatherDisplay:10.37,2013-09-08 09:59:00,
2013-09-08 05:04:00,73.6,57.9,29.93,SSW,205,0.0,0.0,58,0.00,CLR,,0.00,WeatherDisplay:10.37,2013-09-08 10:04:00,
2013-09-08 05:09:00,73.6,57.9,29.93,SSW,205,0.0,0.0,58,0.00,CLR,,0.00,WeatherDisplay:10.37,2013-09-08 10:09:00,
2013-09-08 05:14:00,73.6,58.4,29.93,SSW,205,0.0,0.0,59,0.00,CLR,,0.00,WeatherDisplay:10.37,2013-09-08 10:14:00,
2013-09-08 05:19:00,73.8,58.5,29.93,SSW,205,0.0,0.0,59,0.00,CLR,,0.00,WeatherDisplay:10.37,2013-09-08 10:19:00,
2013-09-08 05:24:00,73.8,58.1,29.93,SSW,205,0.0,0.0,58,0.00,CLR,,0.00,WeatherDisplay:10.37,2013-09-08 10:24:00,
2013-09-08 05:29:00,73.8,58.1,29.93,SSW,205,0.0,0.0,58,0.00,CLR,,0.00,WeatherDisplay:10.37,2013-09-08 10:29:00,
2013-09-08 05:34:00,73.6,57.9,29.93,SSW,205,0.0,0.0,58,0.00,CLR,,0.00,WeatherDisplay:10.37,2013-09-08 10:34:00,
2013-09-08 05:39:00,73.6,57.9,29.90,SSW,205,0.0,0.0,58,0.00,CLR,,0.00,WeatherDisplay:10.37,2013-09-08 10:39:00,
2013-09-08 05:44:00,73.4,57.7,29.90,SSW,205,0.0,0.0,58,0.00,CLR,,0.00,WeatherDisplay:10.37,2013-09-08 10:44:00,
2013-09-08 05:49:00,73.2,58.0,29.90,SSW,205,0.0,0.0,59,0.00,CLR,,0.00,WeatherDisplay:10.37,2013-09-08 10:49:00,
2013-09-08 05:54:00,73.0,57.9,29.90,SSW,205,0.0,0.0,59,0.00,CLR,,0.00,WeatherDisplay:10.37,2013-09-08 10:54:00,
2013-09-08 05:59:00,72.9,57.7,29.90,SSW,205,0.0,0.0,59,0.00,CLR,,0.00,WeatherDisplay:10.37,2013-09-08 10:59:00,
2013-09-08 06:04:00,72.7,57.5,29.93,SSW,205,0.0,0.0,59,0.00,CLR,,0.00,WeatherDisplay:10.37,2013-09-08 11:04:00,
2013-09-08 06:09:00,72.7,57.5,29.93,SSW,205,0.0,0.0,59,0.00,CLR,,0.00,WeatherDisplay:10.37,2013-09-08 11:09:00,
2013-09-08 06:14:00,72.7,57.5,29.93,SSW,205,0.0,0.0,59,0.00,CLR,,0.00,WeatherDisplay:10.37,2013-09-08 11:14:00,
2013-09-08 06:19:00,72.7,57.5,29.93,SSW,205,0.0,0.0,59,0.00,CLR,,0.00,WeatherDisplay:10.37,2013-09-08 11:19:00,
2013-09-08 06:24:00,72.9,57.7,29.93,SSW,205,0.0,0.0,59,0.00,CLR,,0.00,WeatherDisplay:10.37,2013-09-08 11:24:00,
2013-09-08 06:29:00,72.9,57.7,29.93,SSW,205,0.0,0.0,59,0.00,CLR,,0.00,WeatherDisplay:10.37,2013-09-08 11:29:00,
2013-09-08 06:34:00,72.9,57.7,29.93,SSW,205,0.0,0.0,59,0.00,CLR,,0.00,WeatherDisplay:10.37,2013-09-08 11:34:00,
2013-09-08 06:39:00,72.7,57.5,29.93,SSW,205,0.0,0.0,59,0.00,CLR,,0.00,WeatherDisplay:10.37,2013-09-08 11:39:00,
2013-09-08 06:44:00,72.7,57.5,29.93,SSW,205,0.0,0.0,59,0.00,CLR,,0.00,WeatherDisplay:10.37,2013-09-08 11:44:00,
2013-09-08 06:49:00,72.5,57.4,29.93,SSW,205,0.0,0.0,59,0.00,CLR,,0.00,WeatherDisplay:10.37,2013-09-08 11:49:00,
2013-09-08 06:54:00,72.5,57.4,29.93,SSW,205,0.0,0.0,59,0.00,CLR,,0.00,WeatherDisplay:10.37,2013-09-08 11:54:00,
2013-09-08 06:59:00,72.5,57.4,29.93,SSW,205,0.0,0.0,59,0.00,CLR,,0.00,WeatherDisplay:10.37,2013-09-08 11:59:00,
2013-09-08 07:04:00,72.5,57.4,29.93,SSW,205,0.0,0.0,59,0.00,CLR,,0.00,WeatherDisplay:10.37,2013-09-08 12:04:00,
2013-09-08 07:09:00,72.3,57.2,29.93,SSW,205,0.0,0.0,59,0.00,CLR,,0.00,WeatherDisplay:10.37,2013-09-08 12:09:00,
2013-09-08 07:14:00,72.3,57.7,29.93,SSW,205,0.0,0.0,60,0.00,CLR,,0.00,WeatherDisplay:10.37,2013-09-08 12:14:00,
2013-09-08 07:19:00,72.3,57.7,29.93,SSW,205,0.0,0.0,60,0.00,CLR,,0.00,WeatherDisplay:10.37,2013-09-08 12:19:00,
2013-09-08 07:24:00,72.1,57.5,29.93,SSW,205,0.0,0.0,60,0.00,CLR,,0.00,WeatherDisplay:10.37,2013-09-08 12:24:00,
2013-09-08 07:29:00,72.1,57.5,29.93,SSW,205,0.0,0.0,60,0.00,CLR,,0.00,WeatherDisplay:10.37,2013-09-08 12:29:00,
2013-09-08 07:34:00,72.3,57.7,29.93,SSW,205,0.0,0.0,60,0.00,CLR,,0.00,WeatherDisplay:10.37,2013-09-08 12:34:00,
2013-09-08 07:39:00,72.5,57.8,29.93,SSW,205,0.0,0.0,60,0.00,CLR,,0.00,WeatherDisplay:10.37,2013-09-08 12:39:00,
2013-09-08 07:44:00,72.5,57.8,29.93,SSW,205,0.0,0.0,60,0.00,CLR,,0.00,WeatherDisplay:10.37,2013-09-08 12:44:00,
2013-09-08 07:49:00,72.7,58.0,29.93,SSW,205,0.0,0.0,60,0.00,CLR,,0.00,WeatherDisplay:10.37,2013-09-08 12:49:00,
2013-09-08 07:54:00,72.7,58.5,29.93,SSW,205,0.0,0.0,61,0.00,CLR,,0.00,WeatherDisplay:10.37,2013-09-08 12:54:00,
2013-09-08 07:59:00,72.9,58.6,29.93,SSW,205,0.0,0.0,61,0.00,CLR,,0.00,WeatherDisplay:10.37,2013-09-08 12:59:00,
2013-09-08 08:04:00,72.9,58.6,29.93,SSW,205,0.0,0.0,61,0.00,CLR,,0.00,WeatherDisplay:10.37,2013-09-08 13:04:00,
2013-09-08 08:09:00,73.0,58.8,29.93,SSW,205,0.0,0.0,61,0.00,CLR,,0.00,WeatherDisplay:10.37,2013-09-08 13:09:00,
2013-09-08 08:14:00,73.2,59.0,29.93,SSW,205,0.0,0.0,61,0.00,CLR,,0.00,WeatherDisplay:10.37,2013-09-08 13:14:00,
2013-09-08 08:19:00,73.6,59.3,29.93,SSW,205,0.0,0.0,61,0.00,CLR,,0.00,WeatherDisplay:10.37,2013-09-08 13:19:00,
2013-09-08 08:24:00,73.8,59.5,29.93,SSW,205,0.0,0.0,61,0.00,CLR,,0.00,WeatherDisplay:10.37,2013-09-08 13:24:00,
2013-09-08 08:29:00,73.9,59.6,29.93,SSW,205,0.0,0.0,61,0.00,CLR,,0.00,WeatherDisplay:10.37,2013-09-08 13:29:00,
2013-09-08 08:34:00,74.3,60.0,29.93,SSW,205,0.0,0.0,61,0.00,CLR,,0.00,WeatherDisplay:10.37,2013-09-08 13:34:00,
2013-09-08 08:39:00,74.7,60.3,29.93,SSW,205,0.0,0.0,61,0.00,CLR,,0.00,WeatherDisplay:10.37,2013-09-08 13:39:00,
2013-09-08 08:44:00,75.0,60.7,29.93,SSW,205,0.0,0.0,61,0.00,CLR,,0.00,WeatherDisplay:10.37,2013-09-08 13:44:00,
2013-09-08 08:49:00,75.4,60.5,29.93,SSW,205,0.0,0.0,60,0.00,CLR,,0.00,WeatherDisplay:10.37,2013-09-08 13:49:00,
2013-09-08 08:54:00,75.7,60.9,29.93,SSW,205,0.0,0.0,60,0.00,CLR,,0.00,WeatherDisplay:10.37,2013-09-08 13:54:00,
2013-09-08 08:59:00,75.9,60.6,29.93,SSW,205,0.0,0.0,59,0.00,CLR,,0.00,WeatherDisplay:10.37,2013-09-08 13:59:00,
2013-09-08 09:04:00,76.3,60.9,29.93,SSW,205,0.0,0.0,59,0.00,CLR,,0.00,WeatherDisplay:10.37,2013-09-08 14:04:00,
2013-09-08 09:09:00,76.5,60.6,29.93,SSW,205,0.0,0.0,58,0.00,CLR,,0.00,WeatherDisplay:10.37,2013-09-08 14:09:00,
2013-09-08 09:14:00,76.8,60.9,29.93,SSW,205,0.0,0.0,58,0.00,CLR,,0.00,WeatherDisplay:10.37,2013-09-08 14:14:00,
2013-09-08 09:19:00,77.0,60.6,29.93,West,276,2.2,3.5,57,0.00,CLR,,0.00,WeatherDisplay:10.37,2013-09-08 14:19:00,
2013-09-08 09:24:00,77.2,60.3,29.93,West,266,2.2,3.5,56,0.00,CLR,,0.00,WeatherDisplay:10.37,2013-09-08 14:24:00,
2013-09-08 09:29:00,77.4,60.4,29.93,WSW,258,2.2,3.5,56,0.00,CLR,,0.00,WeatherDisplay:10.37,2013-09-08 14:29:00,
2013-09-08 09:34:00,77.7,60.3,29.93,West,265,0.0,0.0,55,0.00,CLR,,0.00,WeatherDisplay:10.37,2013-09-08 14:34:00,
2013-09-08 09:39:00,77.9,59.9,29.93,WSW,257,0.0,0.0,54,0.00,CLR,,0.00,WeatherDisplay:10.37,2013-09-08 14:39:00,
2013-09-08 09:44:00,78.3,59.7,29.93,WSW,257,0.0,0.0,53,0.00,CLR,,0.00,WeatherDisplay:10.37,2013-09-08 14:44:00,
2013-09-08 09:49:00,78.6,59.5,29.93,West,275,2.2,3.5,52,0.00,CLR,,0.00,WeatherDisplay:10.37,2013-09-08 14:49:00,
2013-09-08 09:54:00,79.0,59.3,29.93,SW,236,0.0,0.0,51,0.00,CLR,,0.00,WeatherDisplay:10.37,2013-09-08 14:54:00,
2013-09-08 09:59:00,79.2,58.9,29.93,West,266,2.7,3.5,50,0.00,CLR,,0.00,WeatherDisplay:10.37,2013-09-08 14:59:00,
2013-09-08 10:04:00,79.5,58.7,29.93,West,275,2.2,3.6,49,0.00,CLR,,0.00,WeatherDisplay:10.37,2013-09-08 15:04:00,
2013-09-08 10:09:00,79.9,59.0,29.93,West,275,0.0,0.0,49,0.00,CLR,,0.00,WeatherDisplay:10.37,2013-09-08 15:09:00,
2013-09-08 10:14:00,80.2,59.3,29.93,West,269,0.0,0.0,49,0.00,CLR,,0.00,WeatherDisplay:10.37,2013-09-08 15:14:00,
2013-09-08 10:19:00,80.8,59.3,29.93,West,272,2.7,3.5,48,0.00,CLR,,0.00,WeatherDisplay:10.37,2013-09-08 15:19:00,
2013-09-08 10:24:00,81.1,59.6,29.93,West,269,0.0,2.3,48,0.00,CLR,,0.00,WeatherDisplay:10.37,2013-09-08 15:24:00,
2013-09-08 10:29:00,81.7,60.1,29.93,SW,236,0.0,0.0,48,0.00,CLR,,0.00,WeatherDisplay:10.37,2013-09-08 15:29:00,
2013-09-08 10:34:00,82.0,59.8,29.93,WSW,251,0.0,3.5,47,0.00,CLR,,0.00,WeatherDisplay:10.37,2013-09-08 15:34:00,
2013-09-08 10:39:00,82.8,60.5,29.93,West,275,3.1,3.5,47,0.00,CLR,,0.00,WeatherDisplay:10.37,2013-09-08 15:39:00,
2013-09-08 10:44:00,83.3,60.4,29.93,West,275,0.0,0.0,46,0.00,CLR,,0.00,WeatherDisplay:10.37,2013-09-08 15:44:00,
2013-09-08 10:49:00,83.7,60.7,29.93,WSW,256,0.0,3.5,46,0.00,CLR,,0.00,WeatherDisplay:10.37,2013-09-08 15:49:00,
2013-09-08 10:54:00,84.4,60.7,29.93,WNW,291,0.0,3.5,45,0.00,CLR,,0.00,WeatherDisplay:10.37,2013-09-08 15:54:00,
2013-09-08 10:59:00,85.1,61.4,29.93,West,264,0.0,2.2,45,0.00,CLR,,0.00,WeatherDisplay:10.37,2013-09-08 15:59:00,
2013-09-08 11:04:00,85.6,61.9,29.93,WSW,253,2.7,3.5,45,0.00,CLR,,0.00,WeatherDisplay:10.37,2013-09-08 16:04:00,
2013-09-08 11:09:00,86.4,61.9,29.93,West,268,0.0,0.0,44,0.00,CLR,,0.00,WeatherDisplay:10.37,2013-09-08 16:09:00,
2013-09-08 11:14:00,86.9,62.4,29.93,West,268,0.0,0.0,44,0.00,CLR,,0.00,WeatherDisplay:10.37,2013-09-08 16:14:00,
2013-09-08 11:19:00,87.1,62.5,29.93,WSW,247,0.0,0.0,44,0.00,CLR,,0.00,WeatherDisplay:10.37,2013-09-08 16:19:00,
2013-09-08 11:24:00,87.3,62.7,29.93,WSW,252,0.0,0.0,44,0.00,CLR,,0.00,WeatherDisplay:10.37,2013-09-08 16:24:00,
2013-09-08 11:29:00,87.4,61.5,29.93,West,259,0.0,0.0,42,0.00,CLR,,0.00,WeatherDisplay:10.37,2013-09-08 16:29:00,
2013-09-08 11:34:00,87.3,61.4,29.93,West,259,0.0,0.0,42,0.00,CLR,,0.00,WeatherDisplay:10.37,2013-09-08 16:34:00,
2013-09-08 11:39:00,87.1,61.2,29.93,West,259,0.0,0.0,42,0.00,CLR,,0.00,WeatherDisplay:10.37,2013-09-08 16:39:00,
2013-09-08 11:44:00,87.3,61.4,29.93,West,259,0.0,0.0,42,0.00,CLR,,0.00,WeatherDisplay:10.37,2013-09-08 16:44:00,
2013-09-08 11:49:00,87.6,61.7,29.93,West,272,2.2,4.0,42,0.00,CLR,,0.00,WeatherDisplay:10.37,2013-09-08 16:49:00,
2013-09-08 11:54:00,87.6,61.7,29.93,West,260,0.0,3.5,42,0.00,CLR,,0.00,WeatherDisplay:10.37,2013-09-08 16:54:00,
2013-09-08 11:59:00,87.8,61.2,29.93,West,260,0.0,0.0,41,0.00,CLR,,0.00,WeatherDisplay:10.37,2013-09-08 16:59:00,
2013-09-08 12:04:00,88.0,61.3,29.93,North,5,0.0,3.5,41,0.00,CLR,,0.00,WeatherDisplay:10.37,2013-09-08 17:04:00,
2013-09-08 12:09:00,88.3,61.7,29.93,North,6,0.0,0.0,41,0.00,CLR,,0.00,WeatherDisplay:10.37,2013-09-08 17:09:00,
2013-09-08 12:14:00,88.7,62.0,29.93,WNW,290,0.0,3.5,41,0.00,CLR,,0.00,WeatherDisplay:10.37,2013-09-08 17:14:00,
2013-09-08 12:19:00,89.1,62.3,29.93,WSW,258,0.0,3.5,41,0.00,CLR,,0.00,WeatherDisplay:10.37,2013-09-08 17:19:00,
2013-09-08 12:24:00,89.6,60.6,29.93,West,272,0.0,3.5,38,0.00,CLR,,0.00,WeatherDisplay:10.37,2013-09-08 17:24:00,
2013-09-08 12:29:00,90.0,60.9,29.93,NW,324,0.0,3.5,38,0.00,CLR,,0.00,WeatherDisplay:10.37,2013-09-08 17:29:00,
2013-09-08 12:34:00,90.3,61.3,29.93,NW,306,0.0,3.5,38,0.00,CLR,,0.00,WeatherDisplay:10.37,2013-09-08 17:34:00,
2013-09-08 12:39:00,90.5,61.4,29.93,North,7,2.2,3.5,38,0.00,CLR,,0.00,WeatherDisplay:10.37,2013-09-08 17:39:00,
2013-09-08 12:44:00,90.7,61.6,29.93,NW,314,0.0,0.0,38,0.00,CLR,,0.00,WeatherDisplay:10.37,2013-09-08 17:44:00,
2013-09-08 12:49:00,90.9,61.7,29.93,NNE,21,2.7,3.5,38,0.00,CLR,,0.00,WeatherDisplay:10.37,2013-09-08 17:49:00,
2013-09-08 12:54:00,91.0,61.9,29.93,WNW,285,0.0,2.3,38,0.00,CLR,,0.00,WeatherDisplay:10.37,2013-09-08 17:54:00,
2013-09-08 12:59:00,91.4,62.2,29.93,WSW,249,3.1,5.8,38,0.00,CLR,,0.00,WeatherDisplay:10.37,2013-09-08 17:59:00,
2013-09-08 13:04:00,91.8,62.5,29.93,NNW,330,3.1,5.8,38,0.00,CLR,,0.00,WeatherDisplay:10.37,2013-09-08 18:04:00,
2013-09-08 13:09:00,91.8,62.5,29.93,North,8,0.0,2.3,38,0.00,CLR,,0.00,WeatherDisplay:10.37,2013-09-08 18:09:00,
2013-09-08 13:14:00,91.9,62.7,29.93,North,10,3.1,3.6,38,0.00,CLR,,0.00,WeatherDisplay:10.37,2013-09-08 18:14:00,
2013-09-08 13:19:00,92.3,63.0,29.93,NNW,337,0.0,3.5,38,0.00,CLR,,0.00,WeatherDisplay:10.37,2013-09-08 18:19:00,
2013-09-08 13:24:00,91.9,62.7,29.93,NNE,15,0.0,0.0,38,0.00,CLR,,0.00,WeatherDisplay:10.37,2013-09-08 18:24:00,
2013-09-08 13:29:00,91.2,62.1,29.93,North,1,0.0,0.0,38,0.00,CLR,,0.00,WeatherDisplay:10.37,2013-09-08 18:29:00,
2013-09-08 13:34:00,90.9,61.7,29.93,North,1,0.0,0.0,38,0.00,CLR,,0.00,WeatherDisplay:10.37,2013-09-08 18:34:00,
2013-09-08 13:39:00,90.9,61.7,29.93,North,357,0.0,0.0,38,0.00,CLR,,0.00,WeatherDisplay:10.37,2013-09-08 18:39:00,
2013-09-08 13:44:00,91.0,61.9,29.93,North,5,0.0,0.0,38,0.00,CLR,,0.00,WeatherDisplay:10.37,2013-09-08 18:44:00,
2013-09-08 13:49:00,90.9,61.7,29.93,NNW,333,0.0,0.0,38,0.00,CLR,,0.00,WeatherDisplay:10.37,2013-09-08 18:49:00,
2013-09-08 13:54:00,90.9,61.7,29.93,NW,311,0.0,2.3,38,0.00,CLR,,0.00,WeatherDisplay:10.37,2013-09-08 18:54:00,
2013-09-08 13:59:00,91.0,61.9,29.93,WNW,290,0.0,2.3,38,0.00,CLR,,0.00,WeatherDisplay:10.37,2013-09-08 18:59:00,
2013-09-08 14:04:00,91.0,61.9,29.93,North,10,0.0,0.0,38,0.00,CLR,,0.00,WeatherDisplay:10.37,2013-09-08 19:04:00,
2013-09-08 14:09:00,91.0,61.9,29.93,North,10,0.0,0.0,38,0.00,CLR,,0.00,WeatherDisplay:10.37,2013-09-08 19:09:00,
2013-09-08 14:14:00,91.0,61.9,29.93,NNE,25,0.0,0.0,38,0.00,CLR,,0.00,WeatherDisplay:10.37,2013-09-08 19:14:00,
2013-09-08 14:19:00,91.0,61.9,29.93,NE,53,0.0,0.0,38,0.00,CLR,,0.00,WeatherDisplay:10.37,2013-09-08 19:19:00,
2013-09-08 14:24:00,91.0,61.9,29.93,ENE,62,0.0,0.0,38,0.00,CLR,,0.00,WeatherDisplay:10.37,2013-09-08 19:24:00,
2013-09-08 14:29:00,90.7,61.6,29.93,ENE,61,0.0,0.0,38,0.00,CLR,,0.00,WeatherDisplay:10.37,2013-09-08 19:29:00,
2013-09-08 14:34:00,90.3,61.3,29.93,NNE,15,0.0,0.0,38,0.00,CLR,,0.00,WeatherDisplay:10.37,2013-09-08 19:34:00,
2013-09-08 14:39:00,89.8,60.8,29.93,NNE,26,2.2,3.5,38,0.00,CLR,,0.00,WeatherDisplay:10.37,2013-09-08 19:39:00,
2013-09-08 14:44:00,89.4,61.2,29.93,NE,54,2.2,2.7,39,0.00,CLR,,0.00,WeatherDisplay:10.37,2013-09-08 19:44:00,
2013-09-08 14:49:00,89.1,60.9,29.93,ENE,63,0.0,0.0,39,0.00,CLR,,0.00,WeatherDisplay:10.37,2013-09-08 19:49:00,
2013-09-08 14:54:00,88.7,60.6,29.93,North,357,2.2,3.5,39,0.00,CLR,,0.00,WeatherDisplay:10.37,2013-09-08 19:54:00,
2013-09-08 14:59:00,88.5,60.4,29.90,NNE,17,0.0,3.5,39,0.00,CLR,,0.00,WeatherDisplay:10.37,2013-09-08 19:59:00,
2013-09-08 15:04:00,88.2,60.1,29.90,NNE,14,2.2,3.5,39,0.00,CLR,,0.00,WeatherDisplay:10.37,2013-09-08 20:04:00,
2013-09-08 15:09:00,88.0,59.9,29.90,North,5,2.2,2.7,39,0.00,CLR,,0.00,WeatherDisplay:10.37,2013-09-08 20:09:00,
2013-09-08 15:14:00,88.0,59.9,29.90,NNE,29,2.7,3.5,39,0.00,CLR,,0.00,WeatherDisplay:10.37,2013-09-08 20:14:00,
2013-09-08 15:19:00,88.0,59.9,29.90,North,9,2.2,2.3,39,0.00,CLR,,0.00,WeatherDisplay:10.37,2013-09-08 20:19:00,
2013-09-08 15:24:00,88.0,59.9,29.90,NE,41,2.2,3.5,39,0.00,CLR,,0.00,WeatherDisplay:10.37,2013-09-08 20:24:00,
2013-09-08 15:29:00,88.0,59.9,29.90,North,7,0.0,3.5,39,0.00,CLR,,0.00,WeatherDisplay:10.37,2013-09-08 20:29:00,
2013-09-08 15:34:00,88.0,59.9,29.90,NNE,27,2.7,3.5,39,0.00,CLR,,0.00,WeatherDisplay:10.37,2013-09-08 20:34:00,
2013-09-08 15:39:00,88.0,59.9,29.90,North,11,0.0,3.5,39,0.00,CLR,,0.00,WeatherDisplay:10.37,2013-09-08 20:39:00,
2013-09-08 15:44:00,87.8,59.8,29.90,NNE,31,0.0,0.0,39,0.00,CLR,,0.00,WeatherDisplay:10.37,2013-09-08 20:44:00,
2013-09-08 15:49:00,87.6,59.6,29.87,North,357,2.2,3.1,39,0.00,CLR,,0.00,WeatherDisplay:10.37,2013-09-08 20:49:00,
2013-09-08 15:54:00,87.6,59.6,29.87,NNE,22,2.7,3.5,39,0.00,CLR,,0.00,WeatherDisplay:10.37,2013-09-08 20:54:00,
2013-09-08 15:59:00,87.6,59.6,29.87,North,8,0.0,0.0,39,0.00,CLR,,0.00,WeatherDisplay:10.37,2013-09-08 20:59:00,
2013-09-08 16:04:00,87.6,59.6,29.87,North,8,0.0,0.0,39,0.00,CLR,,0.00,WeatherDisplay:10.37,2013-09-08 21:04:00,
2013-09-08 16:09:00,87.6,59.6,29.87,SSE,164,0.0,0.0,39,0.00,CLR,,0.00,WeatherDisplay:10.37,2013-09-08 21:09:00,
2013-09-08 16:14:00,87.6,59.6,29.87,SSE,164,0.0,0.0,39,0.00,CLR,,0.00,WeatherDisplay:10.37,2013-09-08 21:14:00,
2013-09-08 16:19:00,87.8,61.2,29.87,SSE,164,0.0,0.0,41,0.00,CLR,,0.00,WeatherDisplay:10.37,2013-09-08 21:19:00,
2013-09-08 16:24:00,87.8,61.2,29.87,South,173,0.0,2.3,41,0.00,CLR,,0.00,WeatherDisplay:10.37,2013-09-08 21:24:00,
2013-09-08 16:29:00,87.8,61.2,29.87,South,173,0.0,0.0,41,0.00,CLR,,0.00,WeatherDisplay:10.37,2013-09-08 21:29:00,
2013-09-08 16:34:00,87.8,61.2,29.87,South,173,0.0,0.0,41,0.00,CLR,,0.00,WeatherDisplay:10.37,2013-09-08 21:34:00,
2013-09-08 16:39:00,87.8,61.2,29.87,WSW,253,0.0,0.0,41,0.00,CLR,,0.00,WeatherDisplay:10.37,2013-09-08 21:39:00,
2013-09-08 16:44:00,88.0,61.3,29.87,SW,226,0.0,0.0,41,0.00,CLR,,0.00,WeatherDisplay:10.37,2013-09-08 21:44:00,
2013-09-08 16:49:00,88.0,61.3,29.87,SSE,162,0.0,0.0,41,0.00,CLR,,0.00,WeatherDisplay:10.37,2013-09-08 21:49:00,
2013-09-08 16:54:00,87.8,61.2,29.87,SSE,162,0.0,0.0,41,0.00,CLR,,0.00,WeatherDisplay:10.37,2013-09-08 21:54:00,
2013-09-08 16:59:00,87.6,61.7,29.87,South,185,0.0,0.0,42,0.00,CLR,,0.00,WeatherDisplay:10.37,2013-09-08 21:59:00,
2013-09-08 17:04:00,87.4,61.5,29.87,South,185,0.0,0.0,42,0.00,CLR,,0.00,WeatherDisplay:10.37,2013-09-08 22:04:00,
2013-09-08 17:09:00,87.3,61.4,29.87,WSW,258,0.0,0.0,42,0.00,CLR,,0.00,WeatherDisplay:10.37,2013-09-08 22:09:00,
2013-09-08 17:14:00,87.1,61.2,29.87,WSW,258,0.0,0.0,42,0.00,CLR,,0.00,WeatherDisplay:10.37,2013-09-08 22:14:00,
2013-09-08 17:19:00,87.1,62.5,29.87,North,3,0.0,0.0,44,0.00,CLR,,0.00,WeatherDisplay:10.37,2013-09-08 22:19:00,
2013-09-08 17:24:00,87.1,62.5,29.87,North,3,0.0,0.0,44,0.00,CLR,,0.00,WeatherDisplay:10.37,2013-09-08 22:24:00,
2013-09-08 17:29:00,87.1,62.5,29.87,North,3,0.0,0.0,44,0.00,CLR,,0.00,WeatherDisplay:10.37,2013-09-08 22:29:00,
2013-09-08 17:34:00,86.9,62.4,29.87,North,3,0.0,0.0,44,0.00,CLR,,0.00,WeatherDisplay:10.37,2013-09-08 22:34:00,
2013-09-08 17:39:00,86.7,62.2,29.87,North,3,0.0,0.0,44,0.00,CLR,,0.00,WeatherDisplay:10.37,2013-09-08 22:39:00,
2013-09-08 17:44:00,86.7,62.2,29.87,North,3,0.0,0.0,44,0.00,CLR,,0.00,WeatherDisplay:10.37,2013-09-08 22:44:00,
2013-09-08 17:49:00,86.5,62.0,29.87,North,3,0.0,0.0,44,0.00,CLR,,0.00,WeatherDisplay:10.37,2013-09-08 22:49:00,
2013-09-08 17:54:00,86.5,62.0,29.87,North,3,0.0,0.0,44,0.00,CLR,,0.00,WeatherDisplay:10.37,2013-09-08 22:54:00,
2013-09-08 17:59:00,86.5,62.0,29.87,North,3,0.0,0.0,44,0.00,CLR,,0.00,WeatherDisplay:10.37,2013-09-08 22:59:00,
2013-09-08 18:04:00,86.5,62.0,29.87,North,3,0.0,0.0,44,0.00,CLR,,0.00,WeatherDisplay:10.37,2013-09-08 23:04:00,
2013-09-08 18:09:00,86.5,62.0,29.87,North,3,0.0,0.0,44,0.00,CLR,,0.00,WeatherDisplay:10.37,2013-09-08 23:09:00,
2013-09-08 18:14:00,86.5,62.0,29.87,North,3,0.0,0.0,44,0.00,CLR,,0.00,WeatherDisplay:10.37,2013-09-08 23:14:00,
2013-09-08 18:19:00,86.4,61.9,29.87,North,3,0.0,0.0,44,0.00,CLR,,0.00,WeatherDisplay:10.37,2013-09-08 23:19:00,
2013-09-08 18:24:00,86.2,61.7,29.87,North,3,0.0,0.0,44,0.00,CLR,,0.00,WeatherDisplay:10.37,2013-09-08 23:24:00,
2013-09-08 18:29:00,86.0,61.5,29.87,North,3,0.0,0.0,44,0.00,CLR,,0.00,WeatherDisplay:10.37,2013-09-08 23:29:00,
2013-09-08 18:34:00,85.6,61.9,29.87,North,3,0.0,0.0,45,0.00,CLR,,0.00,WeatherDisplay:10.37,2013-09-08 23:34:00,
2013-09-08 18:39:00,85.5,61.7,29.87,North,3,0.0,0.0,45,0.00,CLR,,0.00,WeatherDisplay:10.37,2013-09-08 23:39:00,
2013-09-08 18:44:00,85.3,61.5,29.87,North,3,0.0,0.0,45,0.00,CLR,,0.00,WeatherDisplay:10.37,2013-09-08 23:44:00,
2013-09-08 18:49:00,84.7,61.0,29.87,North,3,0.0,0.0,45,0.00,CLR,,0.00,WeatherDisplay:10.37,2013-09-08 23:49:00,
2013-09-08 18:54:00,84.4,60.7,29.87,North,3,0.0,0.0,45,0.00,CLR,,0.00,WeatherDisplay:10.37,2013-09-08 23:54:00,
2013-09-08 18:59:00,83.8,60.8,29.87,North,3,0.0,0.0,46,0.00,CLR,,0.00,WeatherDisplay:10.37,2013-09-08 23:59:00,
2013-09-08 19:04:00,83.3,61.0,29.87,North,3,0.0,0.0,47,0.00,CLR,,0.00,WeatherDisplay:10.37,2013-09-09 00:04:00,
2013-09-08 19:09:00,83.1,60.8,29.87,North,3,0.0,0.0,47,0.00,CLR,,0.00,WeatherDisplay:10.37,2013-09-09 00:09:00,
2013-09-08 19:14:00,83.1,60.8,29.87,North,3,0.0,0.0,47,0.00,CLR,,0.00,WeatherDisplay:10.37,2013-09-09 00:14:00,
2013-09-08 19:19:00,82.9,60.6,29.87,North,3,0.0,0.0,47,0.00,CLR,,0.00,WeatherDisplay:10.37,2013-09-09 00:19:00,
2013-09-08 19:24:00,82.6,60.9,29.87,North,3,0.0,0.0,48,0.00,CLR,,0.00,WeatherDisplay:10.37,2013-09-09 00:24:00,
2013-09-08 19:29:00,82.6,60.9,29.87,North,3,0.0,0.0,48,0.00,CLR,,0.00,WeatherDisplay:10.37,2013-09-09 00:29:00,
2013-09-08 19:34:00,82.6,60.9,29.87,North,3,0.0,0.0,48,0.00,CLR,,0.00,WeatherDisplay:10.37,2013-09-09 00:34:00,
2013-09-08 19:39:00,82.6,60.9,29.87,North,3,0.0,0.0,48,0.00,CLR,,0.00,WeatherDisplay:10.37,2013-09-09 00:39:00,
2013-09-08 19:44:00,82.6,60.9,29.87,North,3,0.0,0.0,48,0.00,CLR,,0.00,WeatherDisplay:10.37,2013-09-09 00:44:00,
2013-09-08 19:49:00,82.6,60.9,29.87,North,3,0.0,0.0,48,0.00,CLR,,0.00,WeatherDisplay:10.37,2013-09-09 00:49:00,
2013-09-08 19:54:00,82.6,61.5,29.87,North,3,0.0,0.0,49,0.00,CLR,,0.00,WeatherDisplay:10.37,2013-09-09 00:54:00,
2013-09-08 19:59:00,82.6,61.5,29.87,North,3,0.0,0.0,49,0.00,CLR,,0.00,WeatherDisplay:10.37,2013-09-09 00:59:00,
2013-09-08 20:04:00,82.6,61.5,29.87,North,3,0.0,0.0,49,0.00,CLR,,0.00,WeatherDisplay:10.37,2013-09-09 01:04:00,
2013-09-08 20:09:00,82.6,61.5,29.87,North,3,0.0,0.0,49,0.00,CLR,,0.00,WeatherDisplay:10.37,2013-09-09 01:09:00,
2013-09-08 20:14:00,82.4,61.3,29.87,North,3,0.0,0.0,49,0.00,CLR,,0.00,WeatherDisplay:10.37,2013-09-09 01:14:00,
2013-09-08 20:19:00,82.4,61.9,29.90,North,3,0.0,0.0,50,0.00,CLR,,0.00,WeatherDisplay:10.37,2013-09-09 01:19:00,
2013-09-08 20:24:00,82.2,62.3,29.90,North,3,0.0,0.0,51,0.00,CLR,,0.00,WeatherDisplay:10.37,2013-09-09 01:24:00,
2013-09-08 20:29:00,82.2,62.3,29.90,North,3,0.0,0.0,51,0.00,CLR,,0.00,WeatherDisplay:10.37,2013-09-09 01:29:00,
2013-09-08 20:34:00,82.0,62.7,29.90,North,3,0.0,0.0,52,0.00,CLR,,0.00,WeatherDisplay:10.37,2013-09-09 01:34:00,
2013-09-08 20:39:00,81.9,62.5,29.90,North,3,0.0,0.0,52,0.00,CLR,,0.00,WeatherDisplay:10.37,2013-09-09 01:39:00,
2013-09-08 20:44:00,81.7,62.9,29.90,North,3,0.0,0.0,53,0.00,CLR,,0.00,WeatherDisplay:10.37,2013-09-09 01:44:00,
2013-09-08 20:49:00,81.7,62.9,29.90,North,3,0.0,0.0,53,0.00,CLR,,0.00,WeatherDisplay:10.37,2013-09-09 01:49:00,
2013-09-08 20:54:00,81.7,63.4,29.90,North,3,0.0,0.0,54,0.00,CLR,,0.00,WeatherDisplay:10.37,2013-09-09 01:54:00,
2013-09-08 20:59:00,81.5,63.3,29.90,North,3,0.0,0.0,54,0.00,CLR,,0.00,WeatherDisplay:10.37,2013-09-09 01:59:00,
2013-09-08 21:04:00,81.3,63.6,29.90,North,3,0.0,0.0,55,0.00,CLR,,0.00,WeatherDisplay:10.37,2013-09-09 02:04:00,
2013-09-08 21:09:00,81.3,63.6,29.90,North,3,0.0,0.0,55,0.00,CLR,,0.00,WeatherDisplay:10.37,2013-09-09 02:09:00,
2013-09-08 21:14:00,81.3,63.6,29.90,North,3,0.0,0.0,55,0.00,CLR,,0.00,WeatherDisplay:10.37,2013-09-09 02:14:00,
2013-09-08 21:19:00,81.5,63.8,29.90,North,3,0.0,0.0,55,0.00,CLR,,0.00,WeatherDisplay:10.37,2013-09-09 02:19:00,
2013-09-08 21:24:00,81.5,63.8,29.90,North,3,0.0,0.0,55,0.00,CLR,,0.00,WeatherDisplay:10.37,2013-09-09 02:24:00,
2013-09-08 21:29:00,81.5,63.8,29.90,North,3,0.0,0.0,55,0.00,CLR,,0.00,WeatherDisplay:10.37,2013-09-09 02:29:00,
2013-09-08 21:34:00,81.3,63.6,29.90,North,3,0.0,0.0,55,0.00,CLR,,0.00,WeatherDisplay:10.37,2013-09-09 02:34:00,
2013-09-08 21:39:00,81.3,64.1,29.90,North,3,0.0,0.0,56,0.00,CLR,,0.00,WeatherDisplay:10.37,2013-09-09 02:39:00,
2013-09-08 21:44:00,81.1,64.0,29.90,North,3,0.0,0.0,56,0.00,CLR,,0.00,WeatherDisplay:10.37,2013-09-09 02:44:00,
2013-09-08 21:49:00,81.1,64.0,29.90,North,3,0.0,0.0,56,0.00,CLR,,0.00,WeatherDisplay:10.37,2013-09-09 02:49:00,
2013-09-08 21:54:00,81.1,64.0,29.90,North,3,0.0,0.0,56,0.00,CLR,,0.00,WeatherDisplay:10.37,2013-09-09 02:54:00,
2013-09-08 21:59:00,81.1,64.0,29.90,North,3,0.0,0.0,56,0.00,CLR,,0.00,WeatherDisplay:10.37,2013-09-09 02:59:00,
2013-09-08 22:04:00,81.1,64.0,29.90,North,3,0.0,0.0,56,0.00,CLR,,0.00,WeatherDisplay:10.37,2013-09-09 03:04:00,
2013-09-08 22:09:00,81.1,64.0,29.90,North,3,0.0,0.0,56,0.00,CLR,,0.00,WeatherDisplay:10.37,2013-09-09 03:09:00,
2013-09-08 22:14:00,81.1,64.0,29.90,North,3,0.0,0.0,56,0.00,CLR,,0.00,WeatherDisplay:10.37,2013-09-09 03:14:00,
2013-09-08 22:19:00,81.0,63.8,29.90,North,3,0.0,0.0,56,0.00,CLR,,0.00,WeatherDisplay:10.37,2013-09-09 03:19:00,
2013-09-08 22:24:00,81.0,63.8,29.90,North,3,0.0,0.0,56,0.00,CLR,,0.00,WeatherDisplay:10.37,2013-09-09 03:24:00,
2013-09-08 22:29:00,81.0,63.8,29.90,North,3,0.0,0.0,56,0.00,CLR,,0.00,WeatherDisplay:10.37,2013-09-09 03:29:00,
2013-09-08 22:34:00,80.8,63.6,29.90,North,3,0.0,0.0,56,0.00,CLR,,0.00,WeatherDisplay:10.37,2013-09-09 03:34:00,
2013-09-08 22:39:00,80.6,63.5,29.90,North,3,0.0,0.0,56,0.00,CLR,,0.00,WeatherDisplay:10.37,2013-09-09 03:39:00,
2013-09-08 22:44:00,80.6,63.5,29.90,North,3,0.0,0.0,56,0.00,CLR,,0.00,WeatherDisplay:10.37,2013-09-09 03:44:00,
2013-09-08 22:49:00,80.6,63.5,29.90,North,3,0.0,0.0,56,0.00,CLR,,0.00,WeatherDisplay:10.37,2013-09-09 03:49:00,
2013-09-08 22:54:00,80.6,63.5,29.90,North,3,0.0,0.0,56,0.00,CLR,,0.00,WeatherDisplay:10.37,2013-09-09 03:54:00,
2013-09-08 22:59:00,80.4,63.8,29.90,North,3,0.0,0.0,57,0.00,CLR,,0.00,WeatherDisplay:10.37,2013-09-09 03:59:00,
2013-09-08 23:01:00,80.4,63.8,29.90,North,3,0.0,0.0,57,0.00,CLR,,0.00,WeatherDisplay:10.37,2013-09-09 04:01:00,
2013-09-08 23:02:00,80.4,63.8,29.90,North,3,0.0,0.0,57,0.00,CLR,,0.00,WeatherDisplay:10.37,2013-09-09 04:02:00,
2013-09-08 23:07:00,80.2,63.6,29.90,North,3,0.0,0.0,57,0.00,CLR,,0.00,WeatherDisplay:10.37,2013-09-09 04:07:00,
2013-09-08 23:12:00,80.2,63.6,29.90,North,3,0.0,0.0,57,0.00,CLR,,0.00,WeatherDisplay:10.37,2013-09-09 04:12:00,
2013-09-08 23:17:00,80.2,63.6,29.90,North,3,0.0,0.0,57,0.00,CLR,,0.00,WeatherDisplay:10.37,2013-09-09 04:17:00,
2013-09-08 23:22:00,80.1,63.5,29.90,North,3,0.0,0.0,57,0.00,CLR,,0.00,WeatherDisplay:10.37,2013-09-09 04:22:00,
2013-09-08 23:27:00,80.1,63.5,29.90,North,3,0.0,0.0,57,0.00,CLR,,0.00,WeatherDisplay:10.37,2013-09-09 04:27:00,
2013-09-08 23:32:00,79.9,63.8,29.90,North,3,0.0,0.0,58,0.00,CLR,,0.00,WeatherDisplay:10.37,2013-09-09 04:32:00,
2013-09-08 23:37:00,79.7,63.6,29.90,North,3,0.0,0.0,58,0.00,CLR,,0.00,WeatherDisplay:10.37,2013-09-09 04:37:00,
2013-09-08 23:42:00,79.7,63.6,29.90,North,3,0.0,0.0,58,0.00,CLR,,0.00,WeatherDisplay:10.37,2013-09-09 04:42:00,
2013-09-08 23:47:00,79.7,63.6,29.90,North,3,0.0,0.0,58,0.00,CLR,,0.00,WeatherDisplay:10.37,2013-09-09 04:47:00,
2013-09-08 23:52:00,79.5,63.4,29.90,North,3,0.0,0.0,58,0.00,CLR,,0.00,WeatherDisplay:10.37,2013-09-09 04:52:00,
2013-09-08 23:57:00,79.3,63.3,29.90,North,3,0.0,0.0,58,0.00,CLR,,0.00,WeatherDisplay:10.37,2013-09-09 04:57:00,